sat.trackr.live / text

‹ back to catalog

STARLINK-37016

NORAD 68288 · 2026-055AC

PAYLOAD ACTIVE UNKNOWN

§ Identity

Operator
Country
US
Launch date
2026-03-19
Launch site
AFETR
Launch vehicle
Mass (kg)
RCS (m²)

Purposes: comms

External: N2YO · Heavens-Above · Gunter

§ Orbital elements

Epoch: 2026-09-20T01:49:59.918880Z

Period
93.85 min
Inclination
53.1570°
Eccentricity
0.0001260
Mean motion
15.34407215 rev/d
Perigee alt
461.8 km
Apogee alt
463.5 km
Semi-major
6,840.8 km
B*
6.3245e-4
RAAN
132.0210°
Arg perigee
75.5246°
Mean anomaly
284.5896°
Rev number
2,975

§ Raw data

STARLINK-370161 68288U 26055AC  26263.07638795  .00021057  00000+0  63245-3 0  99912 68288  53.1570 132.0210 0001260  75.5246 284.5896 15.34407215 29759

JSON: /api/v1/satellites/68288 · /tle

For live sub-satellite position, see the globe view (requires WebGL).

§ Visibility from observer

Set your observer location to see the next 7 days of passes ≥ 10°. The values pass through the URL so the page stays shareable.

No JS? Fill the form by hand. The geolocation button needs JavaScript.